(482795) = 2013 PO29

Discovered at Mount Lemmon on 2008-12-04 by Mt. Lemmon Survey.

Orbit

Orbit type: Hungaria

Note: WebGL enabled browser required.

epoch2023-02-25.0
epoch JD2460000.5
perihelion date2021-06-30.66352
perihelion JD2459396.16352
argument of perihelion (°)62.60400
ascending node (°)260.41148
inclination (°)19.74530
eccentricity0.0848608
perihelion distance (AU)1.7522104
Tisserand w.r.t. Jupiter3.9
ΔV w.r.t. Earth (km/sec)10.2
semimajor axis (AU)1.9146928
mean anomaly (°)224.81951
mean daily motion (°/day)0.37201050
aphelion distance (AU)2.077
period (years)2.65
P-vector [x]0.74732521
P-vector [y]-0.66329195
P-vector [z]0.03935516
Q-vector [x]0.57492282
Q-vector [y]0.67518195
Q-vector [z]0.46216132
absolute magnitude18.22
phase slope0.15
uncertainty0
referenceMPO 745323
observations used179
oppositions9
arc length (days)5286
first opposition used2008
last opposition used2023
residual rms (arc-secs)0.66
perturbers coarse indicatorM-v
perturbers precise indicator003Ek
first observation date used2008-12-04.0
last observation date used2023-05-26.0
computer nameMPCLINUX
Minimum Orbit Intersection Distances (in AU)
for orbit epoch: 2460000.5, reference: E2023-KF8
Mercury1.34241
Venus1.07076
Earth0.78748
Mars0.35249
Jupiter3.10545
Saturn7.05343
Uranus16.5185
Neptune28.019

Observations

183 total observations over interval: 2008 12 04.27796 – 2023 05 26.172090
These data are available for download (format description).

Date (UT) J2000 RA J2000 Dec Magn Location Ref
2008 12 04.27796 03 32 02.04 +30 10 36.6 19.9 V G96 – Mt. Lemmon Survey MPS 595386
2008 12 04.28784 03 32 01.35 +30 10 24.8 20.1 V G96 – Mt. Lemmon Survey MPS 595386
2008 12 04.30734 03 32 00.06 +30 10 00.6 20.0 V G96 – Mt. Lemmon Survey MPS 595386
2009 01 17.16277 03 24 38.80 +18 55 22.1 22.0 V G96 – Mt. Lemmon Survey MPS 595386
2009 01 17.16769 03 24 38.95 +18 55 19.2 22.0 V G96 – Mt. Lemmon Survey MPS 595386
2009 01 17.17249 03 24 39.09 +18 55 16.8 21.7 V G96 – Mt. Lemmon Survey MPS 595386
2009 01 17.17735 03 24 39.34 +18 55 14.6 22.0 V G96 – Mt. Lemmon Survey MPS 595386
2011 12 19.271065 08 36 29.26 +00 43 00.9 22.0 i 309 – Cerro Paranal MPS 804902
2011 12 19.274317 08 36 29.10 +00 42 57.8 21.7 i 309 – Cerro Paranal MPS 804902
2011 12 19.277604 08 36 28.99 +00 42 55.4 21.7 i 309 – Cerro Paranal MPS 804902
2013 08 09.50035 22 22 13.236 +31 03 38.59 20.9 g F51 – Pan-STARRS 1, Haleakala MPS 473794
2013 08 09.51156 22 22 12.565 +31 03 46.57 20.6 g F51 – Pan-STARRS 1, Haleakala MPS 473794
2013 08 09.52633 22 22 11.657 +31 03 57.13 20.4 r F51 – Pan-STARRS 1, Haleakala MPS 473794
2013 08 09.53846 22 22 10.922 +31 04 05.90 20.2 r F51 – Pan-STARRS 1, Haleakala MPS 473794
2013 08 11.22947 22 20 34.16 +31 23 34.8 20.4 r I41 – Palomar Mountain--ZTF MPS 473794
2013 08 11.26554 22 20 31.91 +31 23 59.2 20.4 r I41 – Palomar Mountain--ZTF MPS 473794
2013 08 11.33036 22 20 27.86 +31 24 43.0 20.4 r I41 – Palomar Mountain--ZTF MPS 473794
2013 08 16.51865 22 15 01.676 +32 13 43.95 20.6 g F51 – Pan-STARRS 1, Haleakala MPS 473794
2013 08 16.52934 22 15 00.930 +32 13 48.78 20.4 g F51 – Pan-STARRS 1, Haleakala MPS 473794
2015 03 28.39950 11 14 58.811 -34 32 47.33 20.5 i F51 – Pan-STARRS 1, Haleakala MPS 595386
2015 03 28.40885 11 14 58.166 -34 32 41.58 20.3 i F51 – Pan-STARRS 1, Haleakala MPS 595386
2015 03 28.41825 11 14 57.509 -34 32 35.54 20.6 i F51 – Pan-STARRS 1, Haleakala MPS 595386
2015 03 29.850229 11 13 24.37 -34 17 03.8 20.5 R K93 – Sutherland-LCO C MPS 595386
2015 03 29.852478 11 13 24.22 -34 17 02.3 20.4 R K93 – Sutherland-LCO C MPS 595386
2015 03 29.854699 11 13 24.07 -34 17 00.8 20.3 R K93 – Sutherland-LCO C MPS 595386
2015 03 29.856916 11 13 23.92 -34 16 59.5 20.6 R K93 – Sutherland-LCO C MPS 595386
2015 03 29.859145 11 13 23.76 -34 16 57.9 20.5 R K93 – Sutherland-LCO C MPS 595386
2016 11 11.41480 05 06 52.79 +33 59 11.3 20.1 V G96 – Mt. Lemmon Survey MPS 742253
2016 11 11.42412 05 06 52.12 +33 59 04.6 20.2 V G96 – Mt. Lemmon Survey MPS 742253
2016 11 11.43355 05 06 51.59 +33 58 58.4   G96 – Mt. Lemmon Survey MPS 742253
2016 11 11.44287 05 06 50.84 +33 58 51.7 20.4 V G96 – Mt. Lemmon Survey MPS 742253
2016 11 20.43309 04 55 35.10 +32 01 39.4 19.6 V G96 – Mt. Lemmon Survey MPS 745233
2016 11 20.43847 04 55 34.61 +32 01 34.0 20.1 V G96 – Mt. Lemmon Survey MPS 745233
2016 11 20.44299 04 55 34.17 +32 01 30.4 20.3 V G96 – Mt. Lemmon Survey MPS 745233
2016 11 20.44756 04 55 33.79 +32 01 26.5   G96 – Mt. Lemmon Survey MPS 745233
2016 12 01.25531 04 39 57.33 +29 09 07.5 19.6 V G96 – Mt. Lemmon Survey MPS 747522
2016 12 01.25971 04 39 57.04 +29 09 02.0 19.8 V G96 – Mt. Lemmon Survey MPS 747522
2016 12 01.26412 04 39 56.66 +29 08 57.4 20.0 V G96 – Mt. Lemmon Survey MPS 747522
2016 12 01.26841 04 39 56.35 +29 08 52.4   G96 – Mt. Lemmon Survey MPS 747522
2016 12 05.18923 04 34 17.08 +28 00 26.5 19.6 V G96 – Mt. Lemmon Survey MPS 749563
2016 12 05.19376 04 34 16.67 +28 00 22.1 19.8 V G96 – Mt. Lemmon Survey MPS 749563
2016 12 05.19828 04 34 16.32 +28 00 17.3 19.4 V G96 – Mt. Lemmon Survey MPS 749563
2016 12 05.20281 04 34 15.87 +28 00 12.8 19.8 V G96 – Mt. Lemmon Survey MPS 749564
2016 12 06.09086 04 33 00.92 +27 44 26.9 20.5 r G45 – Space Surveillance Telescope, Atom Site MPS 749564
2016 12 06.09093 04 33 00.95 +27 44 26.2 20.6 r G45 – Space Surveillance Telescope, Atom Site MPS 749564
2016 12 06.09569 04 33 00.53 +27 44 21.0 20.1 r G45 – Space Surveillance Telescope, Atom Site MPS 749564
2016 12 06.10051 04 33 00.12 +27 44 15.9 20.0 r G45 – Space Surveillance Telescope, Atom Site MPS 749564
2016 12 06.10537 04 32 59.71 +27 44 10.9 20.1 r G45 – Space Surveillance Telescope, Atom Site MPS 749564
2016 12 06.11020 04 32 59.31 +27 44 05.7 20.7 r G45 – Space Surveillance Telescope, Atom Site MPS 749564
2016 12 19.18964 04 16 52.61 +23 52 33.3 20.0 V G96 – Mt. Lemmon Survey MPS 752854
2016 12 19.19414 04 16 52.34 +23 52 28.1 20.0 V G96 – Mt. Lemmon Survey MPS 752854
2016 12 19.20595 04 16 51.55 +23 52 16.5 20.0 V G96 – Mt. Lemmon Survey MPS 752854
2016 12 19.21023 04 16 51.34 +23 52 11.9 20.6 V G96 – Mt. Lemmon Survey MPS 752854
2016 12 25.41403 04 11 18.498 +22 09 53.04 20.3 w F51 – Pan-STARRS 1, Haleakala MPS 753836
2016 12 25.42532 04 11 17.933 +22 09 42.41 20.0 w F51 – Pan-STARRS 1, Haleakala MPS 753836
2016 12 25.43659 04 11 17.388 +22 09 31.50 20.2 w F51 – Pan-STARRS 1, Haleakala MPS 753836
2016 12 27.21218 04 10 00.27 +21 41 51.3 20.8 r G45 – Space Surveillance Telescope, Atom Site MPS 753836
2016 12 27.21882 04 09 59.99 +21 41 45.1 20.9 r G45 – Space Surveillance Telescope, Atom Site MPS 753836
2016 12 27.22482 04 09 59.72 +21 41 39.6 20.4 r G45 – Space Surveillance Telescope, Atom Site MPS 753836
2016 12 27.22522 04 09 59.66 +21 41 39.2 20.5 r G45 – Space Surveillance Telescope, Atom Site MPS 753836
2016 12 27.23233 04 09 59.37 +21 41 32.4 20.4 r G45 – Space Surveillance Telescope, Atom Site MPS 753836
2017 01 19.14136 04 05 24.67 +17 08 31.3 21.5 V G96 – Mt. Lemmon Survey MPS 759851
2017 01 19.14571 04 05 24.66 +17 08 29.1 21.2 V G96 – Mt. Lemmon Survey MPS 759851
2017 01 19.14999 04 05 24.77 +17 08 26.9 21.2 V G96 – Mt. Lemmon Survey MPS 759851
2017 01 19.15427 04 05 24.81 +17 08 25.2 20.9 V G96 – Mt. Lemmon Survey MPS 759851
2017 01 19.18694 04 05 25.24 +17 08 08.3   691 – Steward Observatory, Kitt Peak-Spacewatch MPS 759851
2017 01 19.19704 04 05 25.34 +17 08 03.3   691 – Steward Observatory, Kitt Peak-Spacewatch MPS 759851
2017 01 19.20709 04 05 25.47 +17 07 58.6   691 – Steward Observatory, Kitt Peak-Spacewatch MPS 759851
2017 01 26.32061 04 08 08.624 +16 14 42.07 21.0 w F51 – Pan-STARRS 1, Haleakala MPS 762136
2017 01 26.33366 04 08 08.992 +16 14 36.76 21.2 w F51 – Pan-STARRS 1, Haleakala MPS 762136
2017 01 26.35956 04 08 09.713 +16 14 26.41 21.1 w F51 – Pan-STARRS 1, Haleakala MPS 762136
2017 01 30.31350 04 10 23.882 +15 50 21.38 21.6 w F51 – Pan-STARRS 1, Haleakala MPS 766104
2017 01 30.32591 04 10 24.326 +15 50 17.30 21.6 w F51 – Pan-STARRS 1, Haleakala MPS 766105
2017 01 30.33831 04 10 24.784 +15 50 12.98 21.4 w F51 – Pan-STARRS 1, Haleakala MPS 766105
2017 01 30.35074 04 10 25.210 +15 50 08.69 21.7 w F51 – Pan-STARRS 1, Haleakala MPS 766105
2018 06 21.27186 16 59 11.63 -20 18 36.6 19.59 r I41 – Palomar Mountain--ZTF MPS 900297
2018 06 21.27323 16 59 11.54 -20 18 35.1 19.64 r I41 – Palomar Mountain--ZTF MPS 900297
2018 06 21.27917 16 59 11.09 -20 18 27.7 19.56 r I41 – Palomar Mountain--ZTF MPS 900297
2018 06 21.28053 16 59 10.98 -20 18 26.4 19.40 r I41 – Palomar Mountain--ZTF MPS 900297
2018 06 21.28281 16 59 10.79 -20 18 24.9 19.20 r I41 – Palomar Mountain--ZTF MPS 900297
2018 06 21.28647 16 59 10.56 -20 18 19.2 19.52 r I41 – Palomar Mountain--ZTF MPS 900297
2018 06 21.28966 16 59 10.32 -20 18 15.4 19.52 r I41 – Palomar Mountain--ZTF MPS 900297
2018 06 21.29013 16 59 10.29 -20 18 14.7 19.60 r I41 – Palomar Mountain--ZTF MPS 901036
2018 06 21.29149 16 59 10.18 -20 18 13.0 19.63 r I41 – Palomar Mountain--ZTF MPS 900297
2018 06 21.29241 16 59 10.12 -20 18 12.0 19.56 r I41 – Palomar Mountain--ZTF MPS 900297
2018 06 21.29422 16 59 09.97 -20 18 09.9 19.58 r I41 – Palomar Mountain--ZTF MPS 900297
2018 06 21.29469 16 59 09.93 -20 18 09.2 19.90 r I41 – Palomar Mountain--ZTF MPS 900297
2018 06 21.29515 16 59 09.91 -20 18 08.8 19.46 r I41 – Palomar Mountain--ZTF MPS 900297
2018 06 21.29605 16 59 09.83 -20 18 07.7 19.58 r I41 – Palomar Mountain--ZTF MPS 900297
2018 06 21.29834 16 59 09.65 -20 18 04.9 19.67 r I41 – Palomar Mountain--ZTF MPS 900297
2018 06 21.29972 16 59 09.56 -20 18 03.1 19.59 r I41 – Palomar Mountain--ZTF MPS 900297
2018 06 21.30292 16 59 09.32 -20 17 59.9 19.52 r I41 – Palomar Mountain--ZTF MPS 900297
2018 06 21.30520 16 59 09.16 -20 17 56.9 19.47 r I41 – Palomar Mountain--ZTF MPS 900297
2018 06 21.30703 16 59 09.01 -20 17 54.4 19.69 r I41 – Palomar Mountain--ZTF MPS 900297
2018 06 21.30794 16 59 08.95 -20 17 53.7 19.54 r I41 – Palomar Mountain--ZTF MPS 900297
